Change the Weather History Date:

Tuesday, September 18, 2012

  Actual Average Record
Temperature  
Mean Temperature 77 °F 79 °F  
Max Temperature 88 °F 90 °F 103 °F (1927)
Min Temperature 65 °F 69 °F 51 °F (1981)
Degree Days  
Heating Degree Days 0 0  
Month to date heating degree days 0 0  
Since 1 July heating degree days 0 0  
Cooling Degree Days 12 14  
Month to date cooling degree days 315 301  
Year to date cooling degree days 3087 2647  
Growing Degree Days 27 (Base 50)    
Moisture  
Dew Point 64 °F    
Average Humidity 69    
Maximum Humidity 93    
Minimum Humidity 42    
Precipitation  
Precipitation 0.00 in 0.10 in 2.03 in (2006)
Month to date precipitation 0.53 1.96  
Year to date precipitation 32.06 27.48  
Sea Level Pressure  
Sea Level Pressure 29.96 in    
Wind  
Wind Speed 6 mph (NNW)    
Max Wind Speed 16 mph    
Max Gust Speed 21 mph    
Visibility 10 miles    
Events      
T = Trace of Precipitation, MM = Missing Value Source: NWS Daily Summary

Daily Weather History Graph

Daily Weather History Graph

Search for Another Location

Airport or City:

Trip Planner

Search our weather history database for the weather conditions in past years. The results will help you decide how hot, cold, wet, or windy it might be!

Date:

Astronomy

Sep. 18, 2012 Rise Set
Actual Time 7:11 AM CDT 7:26 PM CDT
Civil Twilight 6:47 AM CDT 7:50 PM CDT
Nautical Twilight 6:19 AM CDT 8:18 PM CDT
Astronomical Twilight 5:51 AM CDT 8:46 PM CDT
Moon 9:55 AM CDT (9/18) 9:08 PM CDT (9/18)
Length of Visible Light 13h 02m
Length of Day
12h 14m
Waxing Crescent, 9% of the Moon is Illuminated
Sep 18
Waxing Crescent
Sep 22
First Quarter
Sep 29
Full
Oct 8
Last Quarter
Oct 15
New

Hourly Weather History & Observations

Time (CDT) Temp. Heat Index Dew Point Humidity Pressure Visibility Wind Dir Wind Speed Gust Speed Precip Events Conditions
12:53 AM 69.1 °F - 64.9 °F 87% 29.87 in 10.0 mi Calm Calm - N/A   Clear
1:53 AM 69.1 °F - 64.9 °F 87% 29.88 in 10.0 mi Calm Calm - N/A   Clear
2:53 AM 69.1 °F - 64.9 °F 87% 29.88 in 10.0 mi Calm Calm - N/A   Clear
3:53 AM 66.9 °F - 64.9 °F 93% 29.89 in 10.0 mi West 4.6 mph - N/A   Clear
4:53 AM 66.9 °F - 64.9 °F 93% 29.90 in 10.0 mi Calm Calm - N/A   Clear
5:53 AM 66.9 °F - 64.0 °F 90% 29.90 in 10.0 mi Calm Calm - N/A   Partly Cloudy
6:53 AM 66.0 °F - 64.0 °F 93% 29.92 in 10.0 mi WNW 3.5 mph - N/A   Clear
7:53 AM 69.1 °F - 66.0 °F 90% 29.95 in 10.0 mi WNW 4.6 mph - N/A   Mostly Cloudy
8:53 AM 71.1 °F - 66.9 °F 87% 29.98 in 10.0 mi Variable 5.8 mph - N/A   Overcast
9:53 AM 75.9 °F - 66.9 °F 74% 30.00 in 10.0 mi NW 11.5 mph - N/A   Mostly Cloudy
10:53 AM 78.1 °F - 66.9 °F 68% 30.02 in 10.0 mi NNW 9.2 mph - N/A   Overcast
11:53 AM 82.0 °F 83.8 °F 64.9 °F 56% 30.02 in 10.0 mi NNW 11.5 mph - N/A   Mostly Cloudy
12:53 PM 82.9 °F 84.4 °F 64.0 °F 53% 30.01 in 10.0 mi North 11.5 mph - N/A   Scattered Clouds
1:53 PM 82.9 °F 84.4 °F 64.0 °F 53% 30.00 in 10.0 mi NNW 8.1 mph - N/A   Mostly Cloudy
2:53 PM 86.0 °F 86.8 °F 63.0 °F 46% 29.99 in 10.0 mi North 9.2 mph 19.6 mph N/A   Partly Cloudy
3:53 PM 88.0 °F 88.7 °F 63.0 °F 43% 29.96 in 10.0 mi North 8.1 mph - N/A   Clear
4:53 PM 88.0 °F 88.4 °F 62.1 °F 42% 29.95 in 10.0 mi NNW 10.4 mph - N/A   Partly Cloudy
5:53 PM 86.0 °F 86.3 °F 62.1 °F 44% 29.95 in 10.0 mi North 10.4 mph - N/A   Partly Cloudy
6:53 PM 82.9 °F 83.7 °F 62.1 °F 49% 29.96 in 10.0 mi North 8.1 mph - N/A   Clear
7:53 PM 79.0 °F - 63.0 °F 58% 29.98 in 10.0 mi North 4.6 mph - N/A   Clear
8:53 PM 77.0 °F - 64.0 °F 64% 30.00 in 10.0 mi North 4.6 mph - N/A   Clear
9:53 PM 75.9 °F - 64.0 °F 67% 30.02 in 10.0 mi North 4.6 mph - N/A   Clear
10:53 PM 75.9 °F - 64.0 °F 67% 30.04 in 10.0 mi NNE 6.9 mph - N/A   Clear
11:53 PM 73.9 °F - 64.0 °F 71% 30.04 in 10.0 mi NNE 8.1 mph - N/A   Clear